ONEWEB-0011, 44062

Orbit data source: Space-Track

ONEWEB-0011, 44062 is a payload satellite owned by One Web (UK) in LEO that was launched on Wed, 27 Feb 2019 UTC via a SOYUZ-ST-B launch vehicle from the French Guiana (FRGUI). Payload-class satellites include a variety of spacecraft equipped with specific instruments for various scientific and technological missions. These include communications satellites like Starlink; space stations such as the ISS; scientific satellites like the Hubble; Earth observation satellites from companies like Planet Labs, Umbra, and HawkEye 360; GPS; miniature CubeSats for education and research; and military/defense satellites.

Loading next visibility...
Identifier
44062, 2019-010F
Orbit
LEO
Country
Flag of UKUK
Related business
Manufacturer
Airbus/Toulouse
Mission
Operational Commercial Communications
Bus & Motor
ARROW, Unknown motor
Mass
148 kg wet, ~140 kg dry
Launch date (UTC)
2019-02-27 (7 years ago)
Launch vehicle
SOYUZ-ST-B
Launch site
French Guiana (FRGUI)
Object type
Payload
Rocket body
Debris
Shape & HBR
Trap Box + 2 Pan, 2.5 m
Radar Cross Section
2.957 m², Large (>1 m²)

Expand to show TLE details & history
Last TLE update: 20 hours ago

TLE from 20 hours ago
0 ONEWEB-0011
1 44062U 19010F   25260.64579051 -.00000093  00000-0 -28233-3 0  9994
2 44062  87.9034 313.5687 0001948 103.8042 256.3305 13.15550117315587
Epoch: 2025-09-17T15:29Z
TLE epoch observation values (Epoch: 2025-09-17T15:29:56.3Z)
Latitude
-0.00002°
Longitude
84.26536°
Altitude
1,205.009 km
Speed
7.251 km/s
True Right ascension
20h 54m 16s
True Declination
0° 00' 00"
Sunlit
Object was in full shadow at epoch
Visualization orbit readout
Latitude
Unknown
Longitude
Unknown
Altitude
Unknown
Speed
Unknown
Apparent Right ascension
Unknown
Apparent Declination
Unknown
Sunlit
N/A
Visualization observer readout
Local Sidereal Time
04:03:37
Azimuth
Unknown
Elevation
Unknown
Doppler factor
Unknown
Orbital elements
Apogee altitude
1,200.353 km
Perigee altitude
1,197.401 km
Semi-major axis
7,577.014 km
Eccentricity
0.00019
Inclination
87.9034°
RAAN
313.5687°
Arg. of periapsis
103.8042°
True anomaly
256.30881°
Mean anomaly
256.3305°
Eccentric anomaly
256.31966°
Mean motion
3.29076 °/min
Orbital period
109.4 mins
BSTAR
-0.00028233
Loading maneuver chart data...
Computing Atmospheric mass density...
Loading historical data...
Loading historical data...
Loading historical data...
Loading historical data...
Loading historical data...
Loading historical data...
Loading historical data...
Other satellites on launch #10 in the year 2019 (2019-02-27 UTC)

Documentation

Showing up to 5 results
|